Theta_e
282 282 282 282 281 281 281 281 281 281 281 281 281 281 280 281 282 281 282 282 283 283 281 281 280 280 279 280 281 281 282 282 282 282 283 283 283 283 283 283 283 283 283 282 283 283 283 283 284 284 284 284 284 285 285 286 286 286 286 287 286 287
283 282 282 281 282 281 282 282 283 283 283 282 283 282 282 282 283 283 283 283 282 282 281 280 279 279 281 281 280 280 280 280 280 280 281 282 283 283 283 282 282 282 282 282 281 281 282 282 282 283 283 283 283 283 284 284 285 285 285 285 286 286
282 282 283 284 284 284 284 284 283 283 282 282 282 282 281 281 281 282 282 282 281 279 279 279 279 279 280 280 281 280 281 281 281 281 280 280 280 282 281 281 281 282 282 282 282 281 281 280 280 281 281 281 282 282 282 283 283 283 284 284 285 285
284 284 284 283 283 283 284 284 283 283 283 282 281 281 280 280 281 280 281 280 280 279 279 278 278 278 278 278 278 278 279 279 280 280 280 280 280 280 280 280 281 281 281 281 281 281 281 281 280 280 280 280 280 280 282 282 281 282 282 283 283 284
284 284 283 282 281 281 281 281 281 281 280 279 279 280 279 278 278 278 279 279 279 279 278 277 277 277 277 277 277 277 277 277 278 279 279 279 279 279 280 280 280 280 280 280 280 280 280 280 280 280 280 280 279 279 280 280 280 280 280 281 281 282
281 282 282 282 281 280 280 279 279 279 279 279 278 278 278 277 278 278 279 278 278 277 276 276 276 276 276 277 277 277 277 278 278 278 278 279 279 279 280 280 280 280 280 280 280 280 280 280 279 279 279 279 280 280 280 280 280 280 279 280 280 281
281 280 279 279 279 279 279 279 279 279 279 278 279 279 278 278 277 278 278 278 277 277 276 276 276 276 276 276 276 277 277 277 278 278 277 278 278 279 279 279 279 279 279 280 279 280 280 280 280 280 279 279 279 279 279 280 279 279 279 280 280 281
279 278 278 278 279 279 279 279 279 278 278 279 278 279 278 278 277 277 278 277 277 277 276 276 275 275 275 276 276 276 277 277 277 277 277 277 277 278 278 278 278 279 279 279 279 279 279 279 280 280 280 280 280 279 279 279 279 279 279 279 280 280
278 278 278 278 278 278 279 279 279 278 278 279 278 278 278 278 277 277 277 276 276 276 276 275 275 276 276 276 276 277 276 276 276 276 276 276 276 276 276 277 277 277 278 278 278 279 279 279 279 279 279 279 279 279 279 279 279 279 279 279 279 280
278 278 278 278 279 278 278 278 279 279 278 278 278 277 277 279 277 276 276 276 276 276 276 276 276 276 277 277 277 277 277 277 277 277 277 276 276 276 276 277 277 277 277 277 277 277 278 278 278 278 278 278 278 278 278 278 278 278 279 279 279 279
277 277 277 277 277 277 277 277 277 277 277 277 277 277 278 277 277 277 276 276 276 276 276 276 277 278 277 278 278 278 278 278 278 278 278 277 277 278 277 277 277 276 276 277 277 277 277 277 277 278 278 277 278 278 278 278 279 279 279 279 279 280
276 276 276 276 277 277 277 277 276 277 277 277 277 277 277 277 277 276 276 276 276 276 276 276 276 277 277 277 277 277 277 276 276 276 276 276 276 276 277 277 277 276 276 276 276 276 277 277 277 279 281 281 280 279 280 280 279 279 279 279 279 279
277 277 276 277 276 276 277 277 276 276 276 275 275 275 275 275 275 275 275 275 275 275 276 276 276 276 275 276 275 275 275 275 275 274 274 275 275 275 275 275 275 275 275 275 275 275 275 276 276 280 281 282 282 281 279 279 279 279 279 279 279 279
276 276 277 276 276 276 276 276 275 275 275 274 275 275 274 274 274 274 274 274 274 274 274 274 274 274 274 273 273 272 272 272 272 272 272 272 272 272 273 272 273 273 273 274 274 274 274 274 278 280 280 281 282 282 279 278 278 278 278 278 278 279
277 277 276 276 276 276 275 275 275 275 274 274 274 273 273 273 273 273 273 273 273 273 273 273 272 271 271 270 270 270 270 269 269 269 269 269 270 271 270 271 271 271 271 271 271 271 272 273 276 278 279 280 281 281 280 278 277 277 277 277 277 278
276 276 276 276 275 275 275 274 274 275 274 273 273 273 272 272 272 271 271 271 271 271 271 270 269 269 268 268 268 268 267 267 267 267 268 268 269 269 268 268 269 269 269 269 269 269 270 270 274 276 278 279 279 280 279 276 276 276 276 276 276 276
276 276 276 275 275 274 274 273 273 273 272 272 271 272 271 270 270 269 270 270 270 269 268 268 267 266 266 265 265 265 265 265 265 266 266 266 266 266 265 266 266 266 267 267 267 267 268 269 273 275 276 277 278 278 278 275 275 274 274 275 275 275
276 276 275 274 273 272 272 271 272 271 271 271 270 269 269 269 267 269 268 268 267 267 267 265 264 264 263 263 263 262 263 263 263 263 264 264 264 264 264 264 265 264 265 265 265 265 265 266 271 273 274 275 276 277 274 274 274 273 273 274 274 275
275 275 273 272 272 271 271 270 270 269 268 267 267 267 267 267 266 267 266 265 265 265 264 264 263 262 261 261 261 261 261 261 261 261 262 261 262 262 262 262 262 263 262 262 263 263 263 263 267 271 272 273 274 273 270 271 271 272 272 272 273 273
274 273 271 271 270 270 270 269 267 267 266 266 266 265 266 265 265 265 263 264 263 263 263 262 261 260 260 260 259 259 260 260 261 260 261 261 260 260 261 261 261 261 261 261 261 262 262 262 266 270 271 272 272 272 269 269 269 270 270 271 272 273
272 271 270 270 269 269 267 266 265 265 265 265 265 265 263 264 264 263 262 262 263 262 261 261 260 260 259 259 259 259 259 259 259 260 260 260 260 260 260 260 260 260 260 261 261 263 262 262 264 268 270 271 272 270 269 269 269 268 269 269 270 272
270 269 268 268 268 266 266 264 264 263 264 264 264 263 262 263 262 262 262 262 262 260 260 260 259 259 258 258 258 258 259 259 259 259 259 259 259 259 259 259 259 259 259 260 260 261 261 261 262 264 269 270 271 272 269 268 267 267 267 268 268 268
270 269 268 268 267 265 264 263 262 262 263 263 262 261 262 262 262 261 261 261 260 259 259 259 258 258 258 258 258 259 258 259 259 259 258 258 258 258 258 258 258 258 259 259 260 260 261 261 261 263 268 270 271 271 271 268 267 268 267 267 267 268
267 266 266 265 265 264 262 261 261 262 261 261 260 260 262 261 261 261 258 259 258 258 257 257 257 258 257 258 257 257 257 258 258 258 257 258 257 257 257 257 258 258 258 259 259 260 260 262 263 262 266 269 270 271 272 268 267 268 268 267 267 268
266 265 265 264 263 264 263 259 259 259 260 259 259 261 260 260 260 259 258 257 257 257 256 256 256 257 257 257 257 257 256 257 257 257 257 257 256 256 256 256 257 257 257 257 258 259 259 260 261 265 264 268 270 271 272 272 271 272 270 268 267 267
265 264 264 263 262 261 261 258 258 258 258 259 261 260 259 258 257 256 256 256 256 255 255 256 256 256 256 256 256 256 256 256 256 256 256 256 256 256 256 256 256 256 256 256 257 258 259 260 260 264 267 266 270 271 272 273 273 273 270 269 268 268
263 263 262 262 260 260 258 258 257 257 256 259 259 258 257 256 255 254 254 254 254 254 255 255 255 255 255 255 256 255 256 256 256 256 256 256 256 255 255 255 256 255 255 256 256 257 258 260 261 261 264 268 269 271 272 272 273 273 273 269 268 269
260 260 260 260 259 259 259 258 257 255 257 258 258 257 256 254 253 253 254 254 254 255 255 255 255 255 255 255 256 256 256 256 256 255 255 255 255 255 255 255 255 255 256 256 257 258 259 261 261 262 262 265 266 267 269 271 272 272 273 272 271 273
259 258 258 257 258 257 257 256 256 256 257 256 257 257 254 252 253 254 254 254 254 254 254 254 255 256 256 256 256 256 256 256 255 255 255 255 255 255 255 256 256 257 257 258 259 260 261 262 263 263 263 264 264 264 265 266 266 269 271 268 267 268
259 257 257 257 258 257 256 256 255 255 255 255 256 253 252 252 253 254 254 254 254 254 254 254 257 257 256 256 255 255 256 255 255 255 255 255 255 255 256 257 258 258 258 259 261 262 262 263 264 264 265 265 265 266 266 266 266 265 265 265 266 266
257 257 256 257 257 257 256 254 254 254 255 257 254 252 251 253 254 254 253 254 254 254 255 255 255 255 255 255 255 255 256 255 255 255 256 258 259 259 259 259 260 262 263 264 263 263 263 264 264 265 269 269 272 270 269 268 268 268 268 269 271 268
256 255 255 256 257 255 254 254 254 253 256 254 253 252 251 253 253 252 253 254 254 254 254 255 255 255 255 255 255 255 255 259 263 262 261 260 264 268 269 269 265 266 266 266 266 266 265 264 266 271 273 272 273 273 273 274 274 274 273 274 275 273
256 255 254 255 255 254 254 254 254 253 254 255 254 254 253 252 253 253 254 254 253 255 255 255 255 255 255 255 255 255 255 255 257 263 265 266 266 268 269 270 270 271 271 268 266 267 271 272 272 273 273 272 273 273 274 274 274 275 275 275 271 269
255 255 255 255 255 254 253 253 253 252 253 253 253 253 252 252 252 253 254 254 254 255 255 255 255 255 255 255 255 255 255 254 254 256 262 266 266 267 268 269 269 270 270 270 269 267 266 269 272 273 273 273 273 273 274 274 274 275 275 275 274 268
257 257 256 254 253 252 252 252 253 252 252 253 252 252 252 252 252 253 253 254 254 255 255 255 255 255 254 254 254 254 254 254 254 254 255 258 265 267 267 267 267 268 269 270 270 271 270 271 271 272 272 273 273 273 273 274 275 275 275 274 269 265
256 255 254 252 251 252 251 252 253 252 253 253 253 252 251 252 252 253 253 253 254 254 254 254 254 254 255 255 255 254 255 255 255 255 255 255 256 258 262 265 266 267 267 268 269 270 270 271 271 271 272 272 273 273 273 273 271 273 273 270 265 264
253 252 253 254 253 252 252 252 253 252 253 252 251 250 250 251 253 252 254 256 256 254 254 255 255 255 254 255 254 254 255 255 256 256 256 256 255 255 256 256 258 263 267 265 266 268 269 269 270 271 271 272 272 272 272 271 266 264 264 264 264 264
252 252 252 252 252 250 252 252 253 253 252 251 250 250 250 252 253 253 253 254 255 254 254 255 254 255 255 254 254 255 256 256 256 256 256 256 256 256 256 257 258 258 263 266 267 267 268 269 269 270 271 270 270 269 269 263 262 262 262 263 264 264
Wind_Speed
4 4 4 4 4 3 3 3 4 6 6 6 6 6 4 4 4 4 4 5 4 3 3 3 3 3 3 3 3 3 4 4 4 5 4 4 5 6 6 7 7 7 8 8 9 9 9 8 8 8 8 8 8 8 8 8 6 6 7 7 6 6
4 4 4 4 3 3 2 3 4 5 4 5 4 4 4 4 6 5 6 5 5 5 4 4 4 4 4 4 5 6 6 4 4 4 4 5 4 4 4 5 5 5 6 6 6 7 7 7 7 6 6 7 6 7 7 7 6 7 7 7 6 6
2 2 3 3 2 1 2 3 3 2 3 3 3 3 4 4 3 3 3 3 4 4 4 4 4 5 4 5 5 5 5 6 6 6 5 5 7 6 6 5 5 5 5 5 5 5 5 5 7 6 5 6 7 7 6 6 6 6 7 7 8 6
3 2 1 1 1 1 1 1 0 0 0 0 1 1 2 2 3 3 3 3 3 3 3 4 4 4 4 4 4 4 3 3 3 3 4 5 6 5 7 8 8 8 9 8 8 7 6 6 5 6 5 6 6 7 6 7 7 7 7 5 7 8
4 3 2 1 1 1 1 1 2 2 2 2 2 1 2 2 3 3 2 2 3 3 3 2 3 3 3 3 4 3 4 3 3 3 3 4 4 4 4 5 6 7 7 7 8 8 9 8 8 7 6 7 6 7 7 7 6 7 7 7 7 7
1 1 0 0 1 2 4 3 2 3 3 4 4 4 5 4 4 3 2 2 3 2 2 2 2 2 3 3 4 4 4 3 4 3 3 4 4 5 5 4 5 5 7 8 8 8 8 9 8 7 6 7 8 8 9 8 7 7 7 7 7 7
1 2 3 3 3 4 3 3 4 3 4 3 4 5 4 4 3 3 3 1 3 4 3 4 3 3 4 3 4 4 5 4 4 4 4 5 5 5 6 7 5 6 6 7 8 9 10 10 10 11 11 9 7 8 9 9 8 7 8 7 7 7
3 3 3 4 4 4 4 4 4 4 4 4 4 4 4 5 3 3 2 2 2 4 4 4 3 4 4 4 4 4 4 5 4 4 4 4 6 6 5 7 7 6 8 8 8 8 9 10 10 10 11 11 11 10 9 8 8 8 8 8 8 8
4 5 4 4 5 4 4 5 4 4 4 5 5 5 5 4 2 3 3 3 3 3 4 4 4 4 4 4 5 4 4 4 4 4 4 4 4 5 6 5 7 6 7 8 8 8 9 9 9 10 10 10 10 10 11 11 11 10 8 8 8 8
5 5 5 5 6 5 4 4 5 3 3 3 4 5 4 3 2 3 3 3 3 3 3 3 3 2 3 3 4 5 5 6 6 5 4 4 5 6 6 7 8 8 6 7 7 8 7 8 9 9 8 8 9 10 11 11 11 12 11 11 10 8
3 3 3 3 4 4 3 4 4 3 2 1 3 3 4 3 3 3 2 3 5 6 5 6 5 6 7 8 8 9 10 9 9 9 9 9 9 9 9 9 10 10 11 9 9 9 8 9 10 8 7 8 10 10 10 11 11 12 12 12 12 11
3 3 3 3 3 2 0 1 3 4 5 5 4 5 6 6 6 6 6 6 6 6 7 7 7 8 8 9 9 9 9 10 10 10 11 11 10 10 10 10 10 10 11 13 13 12 11 10 9 10 17 17 12 11 10 10 10 11 11 12 13 13
3 3 4 3 3 3 3 3 3 3 3 3 3 3 3 4 5 5 4 5 4 5 6 6 7 7 8 7 8 8 9 11 10 10 11 12 12 13 13 12 13 13 12 12 13 14 14 12 11 21 23 23 25 16 11 11 11 11 12 12 12 13
5 5 5 4 4 4 4 3 3 3 4 3 4 4 3 4 4 4 4 3 4 4 6 6 6 7 7 7 7 8 8 9 10 10 11 12 13 13 12 14 14 14 14 13 13 14 14 14 19 27 26 26 25 22 15 11 11 11 12 12 13 13
5 6 5 4 4 4 3 3 4 4 3 4 3 3 4 4 4 4 4 4 5 5 6 6 7 7 7 7 7 8 9 10 10 10 11 12 12 11 13 14 14 15 14 14 15 15 16 15 22 27 28 27 27 27 22 12 12 12 12 13 13 13
4 4 4 4 4 4 3 4 3 3 3 2 3 4 4 4 4 3 4 4 5 6 6 7 6 7 7 8 9 9 9 10 10 10 9 10 11 11 12 12 13 14 14 14 15 15 16 17 20 27 28 28 28 28 24 14 13 13 13 13 13 12
5 5 5 4 4 3 3 3 2 2 2 2 3 3 3 3 3 4 4 4 5 6 6 8 7 8 8 9 9 10 10 9 10 10 9 9 11 12 12 12 12 12 12 12 13 13 17 16 26 28 29 28 28 28 25 13 12 11 12 12 13 13
9 8 6 4 4 3 3 2 1 2 1 1 3 3 3 3 4 4 4 5 6 6 7 7 7 7 8 9 9 9 10 9 9 11 11 10 9 8 9 10 10 11 13 11 12 13 17 17 26 27 28 28 27 30 16 12 12 12 14 13 13 11
6 7 6 5 3 4 3 2 2 2 2 3 3 3 3 3 3 3 4 4 5 5 6 7 6 7 7 7 9 9 9 10 11 9 8 10 10 10 10 11 10 11 11 15 14 13 16 16 20 25 27 27 28 23 14 15 12 14 14 14 14 12
6 5 7 6 5 4 3 2 2 2 3 3 3 3 3 3 2 3 3 3 3 5 5 4 5 6 7 7 8 9 9 8 8 8 8 9 11 11 10 10 12 10 10 12 13 12 14 14 18 26 26 26 26 22 15 12 12 13 14 13 15 12
7 7 5 5 5 3 3 3 2 2 1 1 2 1 1 1 2 3 3 4 4 4 4 4 4 5 7 8 8 8 10 9 9 9 8 8 8 10 9 10 11 11 9 9 12 19 19 15 16 23 25 26 25 20 13 13 10 13 14 15 15 11
7 4 4 4 5 3 3 2 2 1 1 1 1 1 1 1 2 2 3 4 5 3 4 4 5 6 6 9 9 8 8 8 9 9 9 9 8 10 9 8 10 11 11 10 11 12 12 14 13 17 26 24 25 25 16 12 12 13 15 14 15 13
6 6 5 4 4 3 2 2 2 1 0 1 1 1 0 1 2 3 3 4 5 4 5 4 5 8 7 7 9 8 8 7 8 9 9 10 9 8 10 11 11 11 10 9 10 10 10 10 14 14 24 25 25 26 22 12 12 11 12 12 13 13
6 6 4 3 4 3 2 2 1 0 0 0 1 1 1 2 2 3 3 4 5 5 6 6 6 6 7 7 7 9 9 8 8 8 10 9 9 11 11 11 10 9 10 9 10 10 11 12 19 15 20 25 26 25 27 17 13 15 14 15 12 13
7 6 6 4 3 3 2 2 1 0 1 1 2 0 1 2 2 3 4 4 6 6 6 6 7 8 6 7 8 9 11 9 9 9 8 9 10 10 11 11 10 10 10 10 9 9 10 11 11 20 18 23 26 27 26 28 23 27 19 15 14 12
6 6 4 4 3 2 2 2 0 1 1 4 1 1 1 2 3 4 4 5 6 7 7 6 7 7 6 7 8 8 9 10 9 9 8 9 9 10 11 10 9 9 9 9 9 9 9 10 10 14 22 21 27 27 28 28 29 29 18 15 12 10
7 6 4 4 3 2 1 1 0 1 2 2 0 2 3 3 4 4 5 6 6 7 7 6 7 7 7 7 7 8 8 9 8 10 9 8 9 9 10 11 9 10 10 10 11 11 10 10 10 10 14 23 25 28 28 29 30 28 29 20 14 14
5 5 4 3 3 2 1 0 1 1 3 1 2 3 3 4 4 5 6 6 6 7 7 7 8 7 7 7 6 7 7 8 9 9 10 9 9 9 10 11 10 10 10 10 10 11 11 11 10 11 11 12 17 19 26 31 30 29 29 27 22 28
6 5 4 4 3 3 1 1 1 2 3 4 4 4 3 4 4 6 6 6 7 6 6 7 7 7 6 5 6 6 7 7 6 8 10 9 10 10 10 11 10 11 10 11 12 11 11 11 11 10 10 10 11 11 14 16 17 24 27 19 15 17
6 5 4 4 3 3 2 2 2 3 3 4 4 4 4 4 5 6 6 7 6 6 6 7 8 8 7 6 6 8 9 7 6 7 10 11 10 11 11 11 11 11 10 11 11 11 10 10 10 10 11 11 12 12 11 11 12 11 11 12 13 14
5 4 4 3 2 2 1 3 3 2 3 4 4 4 4 5 5 5 6 6 6 6 5 6 6 6 7 8 7 7 8 9 8 8 11 13 10 10 10 8 8 9 10 10 10 11 10 11 11 9 15 18 24 21 16 12 10 10 10 13 20 16
4 4 3 2 2 1 2 3 3 3 4 4 4 4 4 5 5 5 6 5 5 6 6 6 6 6 6 7 8 9 11 12 17 13 11 12 20 26 26 22 14 13 11 10 9 9 11 11 13 26 32 30 30 32 32 28 29 27 21 23 28 19
3 2 1 2 2 2 3 4 3 4 4 4 4 4 5 4 5 5 5 5 5 6 6 6 7 6 6 6 7 7 9 12 15 19 20 20 22 23 24 24 26 26 25 17 13 13 25 28 29 30 29 30 29 30 30 30 28 28 27 27 18 10
2 2 2 2 2 2 3 4 4 4 4 4 4 4 4 5 4 5 6 5 6 7 6 6 6 7 7 7 6 7 7 8 11 18 24 22 18 21 23 23 23 22 22 24 22 19 13 21 27 29 29 29 30 30 30 30 31 29 27 24 22 10
2 2 2 1 2 3 3 4 5 4 4 4 4 4 4 5 4 6 6 6 6 6 7 7 6 6 6 7 8 8 7 7 9 12 16 23 30 27 18 15 18 20 21 25 26 27 24 24 26 29 29 29 29 30 30 30 31 28 24 23 12 7
2 1 1 2 3 4 4 5 5 4 4 4 5 4 4 5 5 5 5 5 6 7 6 5 6 6 6 6 7 7 8 8 8 9 11 13 15 21 28 29 21 16 19 22 25 25 25 26 27 28 28 28 29 29 28 27 18 20 21 16 9 7
1 1 2 3 3 3 4 6 5 4 4 4 4 4 4 4 5 5 6 9 8 5 6 6 6 6 6 6 7 7 7 8 8 9 10 9 11 12 13 13 20 25 27 23 20 23 26 26 27 27 27 28 27 26 27 24 12 11 10 10 8 8
1 3 3 3 4 3 4 7 5 3 4 4 4 4 4 5 5 5 5 4 6 5 5 6 5 5 6 7 7 7 7 7 8 10 9 9 10 10 10 12 13 14 19 26 23 25 26 28 28 27 27 25 25 24 24 12 11 11 11 10 10 10
Wind_Direction
93 87 80 78 88 97 101 66 52 42 38 40 50 39 25 9 7 11 21 34 33 41 36 45 35 41 47 39 37 38 45 31 19 12 356 351 354 356 354 355 354 354 350 354 347 347 347 343 345 343 342 343 339 337 330 325 328 320 308 301 303 292
128 119 113 102 98 93 78 68 53 49 37 44 29 29 24 13 15 11 18 5 15 0 7 14 24 24 26 21 21 23 23 16 11 0 357 345 328 331 332 336 335 334 334 335 334 333 336 337 333 336 331 332 331 326 328 320 326 323 317 311 308 304
153 148 162 157 160 100 85 65 73 45 44 38 36 39 2 6 350 6 358 360 355 6 360 351 1 7 6 10 17 16 7 2 1 358 348 341 351 347 340 336 327 316 312 310 311 314 316 321 322 328 330 330 327 323 315 316 322 322 316 316 313 310
166 176 184 99 88 72 83 22 59 37 31 320 327 359 349 353 330 339 331 341 344 345 336 335 339 354 356 1 353 349 345 334 340 329 343 347 325 345 336 333 335 334 331 329 320 314 306 302 305 311 322 319 320 317 319 320 322 319 313 312 308 311
179 182 179 170 177 219 244 266 212 217 224 241 239 186 260 226 249 262 269 287 305 301 312 317 315 336 337 338 317 312 306 294 299 299 305 306 306 311 311 312 317 319 318 315 313 315 316 312 309 307 308 305 303 301 301 303 308 309 309 312 303 302
173 127 205 281 230 214 220 217 229 229 223 220 203 207 236 245 239 243 269 305 305 301 326 319 307 332 320 328 303 298 284 282 283 285 282 278 287 297 293 295 294 296 303 304 306 308 307 307 302 299 291 289 294 295 294 295 295 292 290 289 291 293
193 223 227 222 227 225 227 230 232 233 242 219 214 232 236 240 244 235 265 288 311 315 327 305 310 306 296 289 295 289 291 291 296 303 298 301 298 293 298 297 294 292 291 293 296 300 303 303 305 306 305 300 289 283 285 286 286 283 281 277 277 281
222 243 239 234 228 215 217 232 241 256 266 262 230 228 246 242 228 220 227 230 240 280 285 274 278 259 253 259 264 263 264 267 275 282 287 284 290 296 291 288 293 287 289 286 282 283 286 288 290 290 289 293 299 299 291 280 271 271 272 274 272 270
236 225 227 219 221 219 221 222 236 244 256 274 265 235 236 255 224 215 203 222 215 244 256 255 247 243 245 250 252 256 259 261 264 265 276 268 260 272 279 276 277 278 270 275 275 273 275 277 277 280 284 288 290 290 291 295 294 289 283 271 266 264
227 229 231 227 227 229 235 230 226 235 245 280 333 343 342 331 282 251 226 217 228 225 241 239 244 253 283 302 319 326 328 326 324 321 306 298 298 298 295 296 291 286 273 269 270 268 266 268 272 272 272 274 279 287 289 290 292 292 292 291 285 275
256 289 292 278 299 293 313 345 356 2 348 11 355 4 5 329 347 344 358 6 9 358 346 343 348 351 354 349 347 347 343 340 336 333 333 328 323 317 313 309 307 307 305 297 287 286 283 280 279 279 279 284 285 280 280 283 285 288 291 290 288 284
240 245 255 280 258 249 310 357 17 32 36 24 17 27 4 15 23 27 19 15 0 349 347 348 351 355 353 353 349 345 342 338 336 332 329 325 321 319 316 315 313 309 307 308 308 305 301 295 292 287 293 297 295 294 293 291 289 287 285 285 287 285
145 133 120 135 141 143 123 115 99 95 75 57 48 35 5 25 24 25 20 0 353 345 351 356 353 354 356 352 348 344 341 336 334 331 328 326 325 323 322 320 316 313 311 311 309 308 306 303 300 301 305 307 307 305 301 297 293 289 286 282 279 281
173 143 134 126 119 113 121 124 134 102 58 41 34 16 8 28 28 21 11 360 354 358 357 353 353 357 353 352 344 338 334 331 331 330 327 323 322 320 319 315 313 312 313 311 310 307 305 303 304 307 311 312 312 311 307 301 295 291 286 285 282 281
162 152 148 139 131 113 101 104 82 69 62 43 12 24 25 28 19 10 11 6 357 0 358 360 359 348 346 344 342 335 336 333 326 324 324 318 316 316 313 313 315 311 312 313 311 309 306 303 305 309 312 312 313 312 311 304 298 293 289 286 284 283
155 153 147 138 131 117 102 69 80 85 76 61 30 41 17 25 10 16 0 7 358 5 1 358 352 347 344 343 339 336 330 327 320 318 315 311 313 312 309 308 308 308 310 312 312 308 305 301 305 309 311 311 311 310 309 303 298 291 286 285 283 281
156 140 132 136 126 109 103 85 74 85 75 69 64 45 36 24 12 6 6 8 8 7 359 359 354 347 341 337 334 330 324 320 317 316 318 316 312 314 311 312 312 310 312 312 310 307 303 302 308 311 311 310 310 308 307 299 294 288 283 280 278 278
167 160 146 127 118 114 108 92 81 84 66 64 60 43 28 24 13 360 17 13 8 7 2 357 343 338 333 328 325 322 317 316 315 317 318 311 306 301 303 301 303 306 312 314 313 309 303 305 311 313 312 311 310 308 306 303 297 292 286 282 280 276
149 140 127 128 122 114 89 68 61 65 43 35 24 32 16 19 7 16 24 13 6 5 355 346 335 326 323 321 316 313 312 314 314 311 311 304 304 305 306 304 306 313 313 311 310 307 303 303 312 313 312 313 312 310 304 299 292 290 289 287 289 287
114 124 131 128 108 99 94 82 77 61 44 29 10 16 2 5 8 32 16 1 356 344 339 330 322 314 313 311 308 307 305 305 300 298 305 301 304 303 303 305 304 302 303 302 301 302 299 300 308 310 310 310 309 306 302 297 292 286 285 282 280 275
137 134 124 120 112 107 103 89 76 72 57 25 359 0 341 336 36 16 356 336 332 324 319 311 308 305 304 302 300 301 301 302 299 299 298 292 291 291 297 298 297 297 294 288 291 300 301 298 304 308 308 306 305 304 297 294 289 289 291 292 290 285
125 117 115 120 127 119 103 95 91 81 87 349 8 344 305 44 21 350 334 322 315 306 303 303 301 296 295 296 294 292 289 292 294 294 296 293 289 291 293 289 290 292 295 293 292 293 295 297 298 303 304 304 303 303 301 292 289 289 290 289 291 292
140 142 144 136 130 125 118 100 91 64 46 344 344 283 32 33 346 332 316 311 303 299 298 295 291 291 286 281 287 289 289 288 289 295 293 292 292 286 291 292 291 292 291 290 287 288 289 290 296 300 303 304 303 301 301 294 289 289 290 291 290 290
124 122 120 128 129 129 106 95 78 72 256 285 267 256 60 346 318 306 302 297 297 295 293 289 284 278 282 285 287 291 290 286 285 287 288 287 292 295 293 293 293 292 290 288 287 286 287 291 296 296 298 299 300 299 298 297 289 288 286 284 278 285
149 153 151 145 131 120 120 98 87 240 262 262 262 205 345 303 306 297 291 292 292 290 288 285 283 285 284 287 287 288 290 294 294 289 285 291 297 296 295 295 293 293 292 291 289 285 283 283 282 289 291 294 297 297 297 294 293 292 291 288 287 285
150 149 151 141 130 124 123 120 148 231 263 269 268 303 305 305 294 294 292 288 286 287 286 281 281 280 283 283 285 283 287 293 293 292 295 298 299 300 298 293 291 290 287 290 291 285 282 279 278 281 288 292 293 297 297 296 295 295 290 285 280 282
160 151 158 154 144 148 139 150 141 258 270 259 350 289 289 287 293 295 288 285 283 282 280 282 281 284 280 278 278 287 290 291 297 301 300 301 299 295 291 290 290 289 289 291 289 288 285 282 280 278 279 286 290 293 294 294 293 293 292 290 283 276
135 146 165 192 164 159 158 160 154 245 251 277 287 285 283 287 294 291 283 282 281 281 287 290 288 280 276 277 273 270 277 285 299 299 299 299 291 288 287 288 288 284 285 284 282 285 286 284 282 280 276 272 274 274 279 282 284 285 286 285 286 287
144 165 171 194 207 173 213 217 235 225 266 281 279 278 282 287 282 281 283 283 283 285 286 287 291 293 287 287 286 282 282 287 286 290 292 290 288 284 281 282 284 286 284 283 285 286 287 284 281 279 276 274 274 267 266 270 269 270 272 273 274 275
161 171 175 192 201 181 204 236 243 254 263 271 273 274 283 281 274 276 280 285 285 286 285 283 284 290 298 295 296 297 297 287 281 284 286 287 285 283 281 279 281 279 275 280 283 283 280 279 279 279 282 281 274 270 266 253 252 253 244 257 261 257
162 173 168 195 180 182 226 252 257 259 261 268 273 271 274 271 272 274 280 281 284 283 283 282 286 290 293 298 292 283 280 288 289 280 276 270 256 257 261 248 251 265 277 281 290 294 289 289 287 278 291 293 297 298 296 289 278 263 257 251 257 256
150 158 166 195 174 194 230 261 268 266 260 265 267 264 261 269 276 278 279 280 284 289 289 289 289 291 292 292 298 299 295 281 291 289 287 288 289 289 290 294 295 296 294 293 284 286 295 297 295 303 306 304 303 304 304 305 303 303 301 298 299 301
141 140 163 196 179 203 237 263 270 274 271 259 260 251 255 266 276 278 282 290 290 291 296 297 297 294 292 292 296 295 300 310 310 304 296 290 291 293 298 301 300 303 306 307 305 303 303 303 305 306 306 305 307 308 310 309 307 306 305 307 309 306
154 176 203 198 185 221 245 267 265 254 268 265 263 259 253 260 263 280 288 288 290 295 295 290 291 296 297 300 297 295 302 307 313 312 310 306 299 301 304 305 307 310 313 313 313 313 306 306 308 310 311 313 313 311 310 310 308 308 309 312 323 320
172 170 172 183 216 239 252 263 270 257 263 266 261 260 260 263 262 276 285 286 290 289 292 296 292 294 296 302 306 304 305 307 312 309 311 317 319 317 311 308 311 317 320 321 319 318 315 315 315 316 317 315 314 313 311 310 312 314 317 324 326 314
136 160 203 233 237 242 253 265 268 259 261 260 260 257 250 263 263 267 273 283 286 290 290 289 289 293 297 293 294 293 299 300 299 295 300 309 315 326 328 328 324 323 328 323 322 320 321 321 321 320 319 318 317 318 320 322 323 324 324 325 313 303
149 233 240 242 249 257 261 265 268 258 259 259 257 261 267 266 270 269 271 276 282 274 280 284 286 291 292 293 293 292 293 297 295 297 300 299 305 311 311 307 318 324 333 332 328 327 328 326 324 323 322 325 329 332 331 332 332 327 325 322 312 303
234 252 249 248 250 253 264 270 265 256 256 259 257 261 266 270 272 272 275 270 277 277 271 278 278 283 288 290 287 283 293 298 302 303 297 297 297 296 294 303 311 311 318 325 329 330 330 328 327 327 331 335 338 338 341 339 336 332 328 324 322 317